Moab, UT

7:58 AM MDT on September 26, 2016 (GMT -0600)
Canyonlands

Weather History for KCNY - October, 2011

Change the Weather History Date:

Tuesday, October 11, 2011

  Actual Average Record
Temperature  
Mean Temperature 58 °F 56 °F  
Max Temperature 70 °F 71 °F 91 °F (1991)
Min Temperature 45 °F 41 °F 27 °F (1946)
Degree Days  
Heating Degree Days 8 9  
Month to date heating degree days 79  
Since 1 July heating degree days 137  
Cooling Degree Days 0 0  
Month to date cooling degree days 4  
Year to date cooling degree days 1288  
Growing Degree Days 8 (Base 50)    
Moisture  
Dew Point 36 °F    
Average Humidity 45    
Maximum Humidity 76    
Minimum Humidity 26    
Precipitation  
Precipitation 0.00 in 0.05 in 1.09 in (1986)
Month to date precipitation 0.48  
Year to date precipitation 6.82  
Sea Level Pressure  
Sea Level Pressure 29.91 in    
Wind  
Wind Speed 4 mph (SW)    
Max Wind Speed 12 mph    
Max Gust Speed 18 mph    
Visibility 10 miles    
Events      
T = Trace of Precipitation, MM = Missing Value Source: NWS Daily Summary

Daily Weather History Graph

Daily Weather History Graph

Search for Another Location

Airport or City:

Trip Planner

Search our weather history database for the weather conditions in past years. The results will help you decide how hot, cold, wet, or windy it might be!

Date:

Astronomy

Oct. 11, 2011 Rise Set
Actual Time 7:24 AM MDT 6:46 PM MDT
Civil Twilight 6:57 AM MDT 7:13 PM MDT
Nautical Twilight 6:26 AM MDT 7:44 PM MDT
Astronomical Twilight 5:55 AM MDT 8:15 PM MDT
Moon 6:20 PM MDT (10/11) 7:04 AM MDT (10/11)
Length of Visible Light 12h 15m
Length of Day
11h 22m
Full, 100% of the Moon is Illuminated
Oct 11
Full
Oct 11
Full
Oct 19
Last Quarter
Oct 26
New
Nov 2
First Quarter

Hourly Weather History & Observations

Time (MDT) Temp. Dew Point Humidity Pressure Visibility Wind Dir Wind Speed Gust Speed Precip Events Conditions
12:53 AM 57.0 °F 37.0 °F 47% 29.86 in 10.0 mi SSW 5.8 mph - N/A   Overcast
1:53 AM 55.9 °F 37.0 °F 49% 29.86 in 10.0 mi SSE 4.6 mph - N/A   Overcast
2:53 AM 55.9 °F 37.0 °F 49% 29.85 in 10.0 mi ESE 4.6 mph - N/A   Overcast
3:53 AM 53.6 °F 37.4 °F 54% 29.95 in 10.0 mi NNE 6.9 mph - N/A   Overcast
4:53 AM 51.1 °F 37.9 °F 61% 29.88 in 10.0 mi Calm Calm - N/A   Scattered Clouds
5:53 AM 48.2 °F 37.4 °F 66% 29.97 in 10.0 mi Calm Calm - N/A   Clear
6:53 AM 45.0 °F 37.9 °F 76% 29.91 in 10.0 mi Calm Calm - N/A   Clear
7:53 AM 46.4 °F 37.4 °F 71% 29.99 in 10.0 mi Calm Calm - N/A   Clear
8:53 AM 52.0 °F 39.0 °F 61% 29.94 in 10.0 mi SE 6.9 mph - N/A   Clear
9:53 AM 55.9 °F 39.9 °F 55% 29.93 in 10.0 mi SSE 5.8 mph - N/A   Clear
10:53 AM 59.0 °F 37.9 °F 46% 29.93 in 10.0 mi SE 4.6 mph - N/A   Clear
11:53 AM 63.0 °F 37.0 °F 38% 29.91 in 10.0 mi Calm Calm - N/A   Clear
12:53 PM 66.9 °F 35.1 °F 31% 29.88 in 10.0 mi WSW 9.2 mph - N/A   Clear
1:53 PM 68.0 °F 33.8 °F 28% 29.98 in 10.0 mi West 9.2 mph - N/A   Clear
2:53 PM 69.1 °F 34.0 °F 27% 29.85 in 10.0 mi West 5.8 mph 18.4 mph N/A   Clear
3:53 PM 70.0 °F 33.1 °F 26% 29.84 in 10.0 mi West 11.5 mph - N/A   Clear
4:53 PM 70.0 °F 33.1 °F 26% 29.85 in 10.0 mi West 8.1 mph - N/A   Clear
5:53 PM 69.1 °F 33.1 °F 26% 29.86 in 10.0 mi West 8.1 mph - N/A   Clear
6:53 PM 66.0 °F 33.1 °F 29% 29.88 in 10.0 mi Calm Calm - N/A   Clear
7:53 PM 59.0 °F 35.1 °F 41% 29.92 in 10.0 mi WSW 4.6 mph - N/A   Clear
8:53 PM 57.9 °F 33.1 °F 39% 29.93 in 10.0 mi West 6.9 mph - N/A   Clear
9:53 PM 55.0 °F 34.0 °F 45% 29.94 in 10.0 mi Calm Calm - N/A   Clear
10:53 PM 51.1 °F 34.0 °F 52% 29.96 in 10.0 mi Calm Calm - N/A   Clear
11:53 PM 53.1 °F 33.1 °F 47% 29.96 in 10.0 mi Calm Calm - N/A   Clear